927  
ASUS43 KMPX 210710  
RWRMN  
WEATHER ROUNDUP FOR MINNESOTA  
NATIONAL WEATHER SERVICE TWIN CITIES/CHANHASSEN MN  
200 AM CDT SAT SEP 21 2019  
 
NOTE: "FAIR" INDICATES FEW OR NO CLOUDS BELOW 12,000 FEET WITH NO  
SIGNIFICANT WEATHER AND/OR S TO VISIBILITY
. N/A MEANS  
CURRENT SKY AND/OR WEATHER CONDITIONS ARE NOT AVAILABLE.  
 
MNZ060>063-068>070-210800-  
TWIN CITIES METRO  
 
CITY SKY/WX TMP DP RH WIND PRES REMARKS
 
TWIN CITIES FAIR 74 67 78 SE9 29.90S  
ST PAUL FAIR 73 67 81 SE8 29.90S  
CRYSTAL FAIR 74 67 78 S9 29.88R  
BLAINE FAIR 75 68 78 SE8 29.89S  
LAKEVILLE FAIR 73 70 88 S5 29.90S  
EDEN PRAIRIE FAIR 74 67 78 SE9 29.88F  
SOUTH ST PAUL FAIR 73 68 86 S5 29.90S  
LAKE ELMO FAIR 73 68 83 S10 29.92S  

 
MNZ001>005-007-008-013>017-022>024-027-028-210800-  
NORTHWEST MINNESOTA  
 
CITY SKY/WX TMP DP RH WIND PRES REMARKS
 
BEMIDJI FAIR 73 69 88 S16 29.76S  
HALLOCK LGT RAIN 64 63 94 S7 29.69R  
WARROAD TSTM 64 61 88 W5 29.69F  
THIEF RVR FALL HVY RAIN 63 63 100 W7 29.72F  
CROOKSTON HVY RAIN 63 63 100 SW3 29.73R  
FOSSTON MOCLDY 73 64 73 S18 29.71F  
DETROIT LAKES FAIR 75 64 69 S15G23 29.76F  
MOORHEAD CLOUDY 75 66 73 S14G24 29.70F  
PARK RAPIDS LGT RAIN 74 67 78 S15 29.78F  

 
MNZ006-009>011-018-025>026-210800-  
NORTH CENTRAL MINNESOTA  
 
CITY SKY/WX TMP DP RH WIND PRES REMARKS
 
BAUDETTE FAIR 71 68 90 SE16G26 29.69F  
FLAG ISLAND TSTM 64 63 94 SE8 29.66F  
INTL FALLS MOCLDY 70 65 84 S10G21 29.77F  
WASKISH N/A 73 68 83 S13G22 29.72F  
BIG FORK CLOUDY 70 66 88 SE10G21 29.88F  
LONGVILLE FAIR 72 70 94 SE10 29.82F  
GRAND RAPIDS CLOUDY 69 67 93 S17 29.86F  
CRANE LAKE CLOUDY 66 64 94 S6 29.88F  
ORR MOCLDY 68 64 88 SE10 29.83F  
COOK FAIR 70 64 83 SE8 29.87F  
WALKER RAIN 72 69 90 SE10G20 29.79S  

 
MNZ012-019>021-037-210800-  
NORTHEAST MINNESOTA  
 
CITY SKY/WX TMP DP RH WIND PRES REMARKS
 
DULUTH FOG 59 56 89 SE12 29.93F VSB 1/4  
ELY CLOUDY 66 66 100 S9 29.92F  
HIBBING CLOUDY 67 65 93 S10G20 29.89F  
EVELETH CLOUDY 66 64 94 S8 29.91F  
DULUTH HARBOR FOG 54 48 82 E7 29.96F VSB 1/2  
GRAND MARAIS N/A 58 58 100 NE6 29.96F  
G MARAIS ARPRT CLOUDY 61 59 94 SE3 30.00F FOG  

 
MNZ029>031-032-039>041-046>048-054>057-064-210800-  
WEST CENTRAL MINNESOTA  
 
CITY SKY/WX TMP DP RH WIND PRES REMARKS
 
FERGUS FALLS FAIR 75 66 73 S18G24 29.74F  
MORRIS CLOUDY 72 70 94 SE10 29.74F  
ELBOW LAKE FAIR 73 67 82 S18G29 29.78F  
WADENA FAIR 73 66 78 S12G20 29.79F  
GLENWOOD FAIR 73 66 78 S14 29.84F  
APPLETON CLOUDY 73 66 78 CALM 29.79F  
BENSON CLOUDY 73 66 78 S10 29.81F  
ORTONVILLE PTCLDY 73 66 78 S9 29.77F  
MADISON PTCLDY 75 66 73 S10 29.79F  
WILLMAR MOCLDY 73 66 78 SE8 29.86F  

 
MNZ033>034-036-042>043-049>051-058-059-210800-  
CENTRAL MINNESOTA  
 
CITY SKY/WX TMP DP RH WIND PRES REMARKS
 
ST CLOUD FAIR 74 67 78 S10 29.86S  
PAYNESVILLE MOCLDY 73 70 89 S7 29.85F  
AITKIN FAIR 72 64 78 S13 29.84F  
PINE RIVER FAIR 72 66 83 S12 29.85F  
BRAINERD FAIR 77 68 73 S13G24 29.84S HAZE  
STAPLES FAIR 73 66 78 S14 29.81F  
LONG PRAIRIE FAIR 72 68 88 S14G21 29.84F  
LITTLE FALLS FAIR 73 70 88 SE12 29.85F  
LITCHFIELD FAIR 75 70 83 SE7 29.86F  
BUFFALO FAIR 74 66 77 MISG 29.88S  
MAPLE LAKE N/A 74 69 85 CALM 29.88S  
HUTCHINSON MOCLDY 73 69 87 SE6 29.87F  

 
MNZ037-044-045-052-053-210800-  
EAST CENTRAL MINNESOTA  
 
CITY SKY/WX TMP DP RH WIND PRES REMARKS
 
PRINCETON FAIR 75 68 78 SE6 29.88S  
MORA FAIR 70 66 88 SE6 29.91S  
CAMBRIDGE FAIR 73 64 73 SE7 29.89S  
RUSH CITY FAIR 70 66 88 S6 29.90F  
MOOSE LAKE FOG 54 54 100 NE3 29.89F VSB 3/4  
HINCKLEY FAIR 72 70 94 S7 29.90F  
CLOQUET FOG 55 54 94 E6 29.92F VSB<1/4  
MCGREGOR FAIR 64 63 94 SE7 29.89S  

 
MNZ071>073-080-081-089-090-097-098-210800-  
SOUTHWEST MINNESOTA  
 
CITY SKY/WX TMP DP RH WIND PRES REMARKS
 
MONTEVIDEO CLOUDY 73 64 73 S6 29.81S  
GRANITE FALLS CLOUDY 73 68 84 SE7 29.83S  
CANBY PTCLDY 74 65 74 S12G21 29.80F  
MARSHALL CLOUDY 74 67 78 S14G22 29.81F  
REDWOOD FALLS CLOUDY 73 68 84 S13 29.83F  
OLIVIA CLOUDY 72 66 83 S9 29.83F  
PIPESTONE CLOUDY 72 66 83 SW15G24 29.83F  
WORTHINGTON CLOUDY 72 67 84 S10 29.87S  
JACKSON MOCLDY 72 64 78 S13 29.88S  
TRACY MOCLDY 73 68 83 S13 29.82F  

 
MNZ065>067-074>077-082>085-091>093-210800-  
SOUTH CENTRAL MINNESOTA  
 
CITY SKY/WX TMP DP RH WIND PRES REMARKS
 
MANKATO FAIR 73 69 87 S12 29.88F  
NEW ULM MOCLDY 73 66 78 S10 29.86F  
FAIRMONT CLOUDY 73 68 84 S14 29.88S  
GLENCOE FAIR 75 68 77 SE8 29.87S  
OWATONNA FAIR 73 66 78 S10G17 29.91F  
WASECA FAIR 72 66 83 SE8 29.91F  
ALBERT LEA FAIR 72 68 88 S10 29.93R  

 
MNZ078>079-086>088-094>096-210800-  
SOUTHEAST MINNESOTA  
 
CITY SKY/WX TMP DP RH WIND PRES REMARKS
 
ROCHESTER FAIR 71 66 84 S12 29.95F  
RED WING FAIR 73 64 73 SE7 29.92S  
STANTON FAIR 73 67 79 S10 29.90S  
DODGE CENTER FAIR 72 64 78 S10 29.94F  
WINONA FAIR 73 68 83 SE5 29.95F  
AUSTIN FAIR 75 63 64 S7 29.94F  
PRESTON FAIR 70 65 85 S13 29.97S  

 
ABBREVIATIONS USED IN REMARKS  
TC - TEMPERATURES IN CELSIUS  
WCI - WIND CHILL INDEX  
HX - HEAT INDEX  
VSB - VISIBILITY  

 
 
 
CLICK HERE TO GO TO PREVIOUS BULLETINS.

The Nexlab MN Page Main Text Page